Погода в Рянзе

Россия / Пензенская область     53°28′50″N   42°27′38″E
темп.,
°C
ветер,
м/с
пор.,
м/с
влажн.,
%
обл.,
%
осадки,
мм/ч
давл.,
гПа
погр.,
м
14 мая, пт
пт1400:00+13ю229095 0.0 101810
03:00+13юв2291100 0.0 101817
06:00+14юв239199 0.0 101981
09:00+19юв347581 0.0 1019495
12:00+23юв455850 0.0 10181161
15:00+24ююв465642 0.0 10171277
18:00+22юв3874100 0.0 1016255
21:00+18юв488519 0.2 1015125
15 мая, сб
сб1500:00+17юв4109185 0.0 1014179
03:00+15юв4128764 0.0 1013229
06:00+16ююв51281100 0.0 1014299
09:00+19ю61168100 0.0 1014493
12:00+23ю7106249 0.0 1014939
15:00+24ю566213 0.3 10141221
18:00+21ююв277911 0.9 1014251
21:00+17ю34810 0.9 101452
16 мая, вс
вс1600:00+16зюз339176 0.0 101440
03:00+15зюз2288100 0.0 101513
06:00+16зюз2384100 0.0 101672
09:00+20юз236817 0.0 1016404
12:00+23юз235116 0.0 10161399
15:00+24ююз234983 0.0 10151672
18:00+23зюз116392 0.0 101425
21:00+17ссз228392 1.1 101521
17 мая, пн
пн1700:00+16св338522 0.4 101542
03:00+15св349080 0.4 101665
06:00+16всв248411 0.0 1015101
09:00+22вюв466420 0.0 1015435
12:00+26ююв57475 0.0 1015864
15:00+26ююв58481 0.0 10141302
18:00+23юв496510 0.0 1014267
21:00+19юв4972100 0.0 1015122
18 мая, вт
вт1800:00+17юв4126884 0.0 1014201
03:00+16юв41458100 0.0 1014220
06:00+16юв5136697 0.0 1013221
09:00+22ююв5105622 0.0 1013390
12:00+25ююв694660 0.0 1013759
15:00+27ююв594857 0.0 10121515
18:00+24юв376461 0.0 1012196
21:00+19ююв497476 0.0 1012151